EDT,Max TemperatureF,Mean TemperatureF,Min TemperatureF,Max Dew PointF,MeanDew PointF,Min DewpointF,Max Humidity, Mean Humidity, Min Humidity, Max Sea Level PressureIn, Mean Sea Level PressureIn, Min Sea Level PressureIn, Max VisibilityMiles, Mean VisibilityMiles, Min VisibilityMiles, Max Wind SpeedMPH, Mean Wind SpeedMPH, Max Gust SpeedMPH,PrecipitationIn, CloudCover, Events, WindDirDegrees
2013-3-1,49,43,36,33,29,24,89,67,45,29.69,29.60,29.53,10,10,10,20,10,25,0.00,6,,332
2013-3-2,41,38,34,27,25,23,69,60,51,29.70,29.67,29.63,10,10,10,11,7,14,0.00,8,,300
2013-3-3,44,38,32,28,25,21,82,66,49,29.65,29.62,29.57,10,10,9,15,8,25,T,7,Snow,303
2013-3-4,43,36,28,23,20,18,78,61,43,29.75,29.66,29.61,10,10,10,23,14,32,T,6,,302
2013-3-5,47,39,31,31,25,20,82,64,45,30.06,29.95,29.78,10,10,10,14,9,23,0.00,5,,360
2013-3-6,43,38,32,36,33,28,92,87,82,30.04,30.01,29.95,10,8,4,32,18,40,0.01,8,Rain,43
2013-3-7,36,34,31,34,30,27,92,85,78,29.97,29.94,29.92,8,2,1,35,23,45,0.11,8,Rain-Snow,11
2013-3-8,40,35,30,31,28,22,92,71,50,30.11,29.97,29.90,10,3,1,28,19,36,0.07,7,Snow,5
2013-3-9,48,40,31,28,24,18,82,61,39,30.34,30.23,30.12,10,10,10,24,14,32,0.00,1,,17
2013-3-10,47,39,30,33,30,27,92,73,53,30.41,30.36,30.32,10,10,9,13,6,17,0.00,5,,20
2013-3-11,49,43,36,40,37,32,93,82,71,30.34,30.25,30.18,10,10,6,21,9,24,0.00,8,,176
2013-3-12,54,47,40,52,46,39,100,92,83,30.17,29.96,29.75,10,7,2,28,11,37,0.95,7,Rain,170
2013-3-13,53,44,35,52,30,19,76,52,28,29.80,29.77,29.72,10,10,10,20,10,25,T,5,Rain,297
2013-3-14,36,30,24,24,14,5,72,54,35,29.87,29.80,29.75,10,10,10,29,13,39,0.00,5,,290
2013-3-15,43,34,24,27,13,2,70,46,21,29.89,29.79,29.69,10,10,10,23,13,32,T,4,Snow,278
2013-3-16,40,35,29,25,15,6,61,43,25,29.88,29.81,29.73,10,10,10,15,6,18,0.00,6,,271
2013-3-17,40,33,26,19,9,-1,63,42,20,30.31,30.06,29.88,10,10,10,22,9,31,0.00,4,,313
2013-3-18,36,28,20,28,11,-3,92,60,27,30.47,30.35,30.22,10,9,0,17,9,21,0.15,6,Fog-Snow,85
2013-3-19,38,34,30,36,31,28,92,89,85,30.21,29.86,29.57,10,4,0,22,11,31,1.10,8,Fog-Rain-Snow,40
2013-3-20,41,35,28,28,20,14,78,56,34,29.82,29.78,29.71,10,10,9,24,10,31,0.00,3,Snow,274
2013-3-21,39,34,28,28,23,17,85,68,50,29.83,29.69,29.61,10,8,1,15,7,20,T,7,Snow,352
2013-3-22,42,35,27,20,16,13,58,46,33,29.78,29.69,29.62,10,10,10,21,12,30,0.00,5,,294
2013-3-23,45,37,28,23,18,13,75,51,27,29.82,29.75,29.68,10,10,10,29,14,40,0.00,2,Rain,287
2013-3-24,50,41,31,28,21,17,75,53,31,29.85,29.80,29.72,10,10,10,17,8,22,0.00,3,,283
2013-3-25,48,40,31,32,28,23,89,64,38,29.76,29.59,29.49,10,10,5,29,13,37,0.02,6,Rain,35
2013-3-26,49,42,34,32,25,19,82,58,34,29.80,29.66,29.51,10,10,3,21,9,25,0.03,6,Rain-Snow,323
2013-3-27,56,43,30,28,21,18,63,45,26,29.87,29.81,29.76,10,10,10,20,10,26,0.00,3,,299
2013-3-28,50,44,37,33,30,27,82,62,42,30.03,29.94,29.87,10,10,10,20,8,24,T,7,Rain,354
2013-3-29,59,49,38,32,29,23,70,50,30,30.06,30.03,29.98,10,10,10,17,7,24,T,5,Rain,300
2013-3-30,59,49,39,30,21,12,60,39,17,30.11,30.06,30.01,10,10,10,16,8,24,0.00,3,,314
2013-3-31,59,46,32,44,29,20,93,59,24,30.13,30.01,29.74,10,9,3,25,9,37,0.31,5,Rain,173